Home   Weather   Wittenberge   Past weeks

Flag for Germany Past Weather in Wittenberge, Mecklenburg-Western Pomerania, Germany — Yesterday and Last 2 Weeks

Now
21 °F

Fog.


Feels Like: 21 °F
Forecast: 27 / 36 °F
Wind: 1 mph from West

Location: Fassberg

Current Time: Dec 3, 2016 at 3:31:07 am

Latest Report: Dec 3, 2016 at 2:20 am


Visibility: N/A

Pressure: 30.24 "Hg

Humidity: 100%

Dew Point: 21 °F

Location of WittenbergeLocation

Past Weather in Wittenberge — Graph

°F

Wittenberge Temperature Yesterday

Maximum temperature yesterday: 46 °F (at 12:20 am)
Minimum temperature yesterday: 23 °F (at 11:20 pm)
Average temperature yesterday: 37 °F

High & Low Weather Summary for the Past Weeks

 TemperatureHumidityPressure
High59 °F (Nov 21, 11:20 am)100% (Nov 18, 8:20 am)30.57 "Hg (Nov 18, 8:20 am)
Low14 °F (Nov 29, 4:20 am)49% (Dec 2, 2:20 pm)29.33 "Hg (Nov 18, 6:20 am)
Average39 °F85%30.03 "Hg
* Reported Nov 18 1:20 am — Dec 3 1:20 am, Wittenberge, Weather by CustomWeather, © 2016

Note: Actual official high and low records may vary slightly from our data, if they occured in-between our weather recording intervals... More about our weather records

Advertising

Wittenberge Weather History for the Previous 24 Hours

Scroll right to see more
 ConditionsComfort  
Time TempWeatherWind HumidityBarometerVisibility
1:20 am
Sat, Dec 3
23 °FFog.1 mph93%30.24 "HgN/A
12:20 am23 °FFog.No wind93%30.24 "HgN/A
11:20 pm
Fri, Dec 2
23 °FFog.No wind100%30.24 "HgN/A
10:20 pm25 °FFog.No wind93%30.21 "HgN/A
9:20 pm25 °FCold.1 mph93%30.21 "HgN/A
8:20 pm27 °FChilly.1 mph93%30.21 "HgN/A
7:20 pm27 °FChilly.2 mph93%30.21 "HgN/A
6:20 pm28 °FChilly.1 mph93%30.21 "HgN/A
5:20 pm30 °FChilly.No wind86%30.18 "HgN/A
4:20 pm36 °FChilly.2 mph70%30.18 "HgN/A
3:20 pm41 °FQuite cool.7 mph53%30.18 "HgN/A
2:20 pm43 °FQuite cool.9 mph49%30.15 "HgN/A
1:20 pm43 °FQuite cool.8 mph53%30.15 "HgN/A
12:20 pm41 °FQuite cool.7 mph61%30.15 "HgN/A
11:20 am41 °FQuite cool.6 mph61%30.15 "HgN/A
10:20 am36 °FChilly.7 mph81%30.12 "HgN/A
9:20 am34 °FChilly.6 mph81%30.09 "HgN/A
8:20 am34 °FChilly.8 mph87%30.07 "HgN/A
7:20 am36 °FChilly.7 mph81%30.04 "HgN/A
6:20 am39 °FPassing clouds.10 mph75%30.01 "HgN/A
5:20 am43 °FPassing clouds.14 mph66%30.01 "HgN/A
4:20 am45 °FPartly cloudy.17 mph76%29.95 "HgN/A
3:20 am46 °FPassing clouds.20 mph76%29.95 "HgN/A
Weather by CustomWeather, © 2016

See weather overviewHow to use our weather pages